Weather History for KSNT - May, 2014

Change the Weather History Date:

Wednesday, May 14, 2014

  Actual Average Record
Temperature  
Mean Temperature 45 °F 43 °F  
Max Temperature 65 °F 58 °F 80 °F (1993)
Min Temperature 24 °F 28 °F 17 °F (1970)
Degree Days  
Heating Degree Days 20 22  
Month to date heating degree days 350 342  
Since 1 July heating degree days 9630 10002  
Cooling Degree Days 0 0  
Month to date cooling degree days 0 0  
Year to date cooling degree days 0 0  
Moisture  
Dew Point 27 °F    
Average Humidity 59    
Maximum Humidity 92    
Minimum Humidity 25    
Precipitation  
Precipitation 0.00 in 0.06 in 0.38 in (2001)
Month to date precipitation 0.60 0.78  
Year to date precipitation 12.38 7.62  
Sea Level Pressure  
Sea Level Pressure 30.30 in    
Wind  
Wind Speed 4 mph (NNW)    
Max Wind Speed 14 mph    
Max Gust Speed 21 mph    
T = Trace of Precipitation, MM = Missing Value Source: NWS Daily Summary

Daily Weather History Graph

Daily Weather History Graph

Search for Another Location

Airport or City:

Trip Planner

Search our weather history database for the weather conditions in past years. The results will help you decide how hot, cold, wet, or windy it might be!

Date:

Astronomy

May. 14, 2014 Rise Set
Actual Time 6:14 AM MDT 8:58 PM MDT
Civil Twilight 5:40 AM MDT 9:32 PM MDT
Nautical Twilight 4:58 AM MDT 10:14 PM MDT
Astronomical Twilight 4:10 AM MDT 11:03 PM MDT
Moon 9:07 PM MDT (5/14) 6:17 AM MDT (5/14)
Length of Visible Light 15h 51m
Length of Day
14h 44m
Full, 100% of the Moon is Illuminated
May 14
Full
May 14
Full
May 21
Last Quarter
May 28
New
Jun 5
First Quarter

Hourly Weather History & Observations

Time (MDT) Temp. Windchill Dew Point Humidity Pressure Visibility Wind Dir Wind Speed Gust Speed Precip Events Conditions
12:51 AM 30.0 °F 25.2 °F 25.0 °F 82% 30.37 in - SE 4.6 mph - N/A   Unknown
1:51 AM 28.9 °F - 24.1 °F 82% 30.37 in - Calm Calm - N/A   Unknown
2:51 AM 27.0 °F - 24.1 °F 89% 30.38 in - Calm Calm - N/A   Unknown
3:51 AM 26.1 °F - 23.0 °F 88% 30.38 in - Calm Calm - N/A   Unknown
4:51 AM 27.0 °F 23.0 °F 23.0 °F 85% 30.38 in - SSE 3.5 mph - N/A   Unknown
5:51 AM 25.0 °F - 21.9 °F 88% 30.37 in - Calm Calm - N/A   Unknown
6:51 AM 25.0 °F - 21.9 °F 88% 30.38 in - Calm Calm - N/A   Unknown
7:51 AM 30.9 °F 27.5 °F 26.1 °F 82% 30.38 in - ENE 3.5 mph - N/A   Unknown
8:51 AM 37.0 °F 34.5 °F 27.0 °F 67% 30.39 in - Variable 3.5 mph - N/A   Unknown
9:51 AM 45.0 °F 43.5 °F 28.0 °F 52% 30.36 in - North 3.5 mph - N/A   Unknown
10:51 AM 53.1 °F - 28.0 °F 38% 30.32 in - NNW 4.6 mph - N/A   Unknown
11:51 AM 57.0 °F - 25.0 °F 29% 30.30 in - North 8.1 mph - N/A   Unknown
12:51 PM 60.1 °F - 27.0 °F 28% 30.29 in - North 6.9 mph - N/A   Unknown
1:51 PM 62.1 °F - 26.1 °F 25% 30.27 in - North - - N/A   Unknown
2:51 PM 62.1 °F - 26.1 °F 25% 30.26 in - Variable 3.5 mph - N/A   Unknown
3:51 PM 64.0 °F - 28.0 °F 26% 30.24 in - West 10.4 mph 16.1 mph N/A   Unknown
4:51 PM 64.0 °F - 28.0 °F 26% 30.23 in - NW 9.2 mph - N/A   Unknown
5:51 PM 63.0 °F - 28.0 °F 27% 30.24 in - NNW 6.9 mph - N/A   Unknown
6:51 PM 64.0 °F - 28.9 °F 27% 30.21 in - NW 12.7 mph 17.3 mph N/A   Unknown
7:51 PM 61.0 °F - 28.9 °F 30% 30.19 in - NNW 5.8 mph - N/A   Unknown
8:51 PM 52.0 °F - 30.0 °F 43% 30.21 in - Calm Calm - N/A   Unknown
9:51 PM 43.0 °F 41.3 °F 30.9 °F 62% 30.23 in - SSW 3.5 mph - N/A   Unknown
10:51 PM 41.0 °F - 28.9 °F 62% 30.22 in - Calm Calm - N/A   Unknown
11:51 PM 36.0 °F 32.1 °F 28.9 °F 76% 30.23 in - SSE 4.6 mph - N/A   Unknown